Regional Weather Roundup
Issued by NWS Sterling, VA

Home | Current Version | Previous Version | Text Only | Print | Product List | Glossary On
Versions: 1 2 3 4 5 6 7 8 9 10 11 12 13 14 15 16 17 18 19 20 21 22 23 24 25 26 27
000
ASUS41 KLWX 152011
RWRLWX

REGIONAL WEATHER ROUNDUP
NATIONAL WEATHER SERVICE BALTIMORE MD/WASHINGTON DC
300 PM EST FRI DEC 15 2017

Note: "FAIR" indicates few or no clouds below 12,000 feet
with no significant weather and/or obstructions to visibility.
 TC=TEMPERATURE CELSIUS

 * =Non NWS site. Station does not report precipitation (e.g. rain,
    snow, etc.), thunder, or fog.

DCZ001-MDZ009-015-VAZ040>042-051-053>054-152100-
WASHINGTON METRO

CITY           SKY/WX    TMP DP  RH WIND       PRES   REMARKS
WASHINGTON NAT LGT SNOW  28  25  88 N3        29.95F FOG
DULLES         LGT SNOW  26  24  92 CALM      29.94S FOG
ANDREWS AFB    FLURRIES  26  22  85 CALM      29.91F
FT BELVOIR     FLURRIES  28  21  74 NW5       29.95S
QUANTICO       CLOUDY    30  23  75 N6        29.96S
COLLEGE PARK*  CLOUDY    26  22  85 CALM      29.94F
LEESBURG*      FLURRIES  28  27  93 CALM      29.95R
MANASSAS*      CLOUDY    28  24  85 CALM      29.95S
GAITHERSBURG*  LGT SNOW  25  21  86 NW3       29.93R FOG

$$

MDZ006>007-011-014-152100-
BALTIMORE METRO

CITY           SKY/WX    TMP DP  RH WIND       PRES   REMARKS
BWI AIRPORT    LGT SNOW  26  25  96 CALM      29.93F VSB 3/4
MD SCIENCE CTR   N/A     27  24  89 MISG      29.94S
MARTIN STATE   SNOW      27  25  93 CALM      29.96F VSB 1/4
ANNAPOLIS      LGT SNOW  28  27  96 N7        29.94F FOG
FORT MEADE*    CLOUDY    27  25  93 CALM      29.96F VSB 1

$$

MDZ012-015-019>023-152100-
MARYLAND EASTERN SHORE

CITY           SKY/WX    TMP DP  RH WIND       PRES   REMARKS
OCEAN CITY     CLOUDY    42  33  70 NE6       29.87F
SALISBURY      CLOUDY    36  28  73 N9        29.87R WCI  29
BAY BRIDGE AP* LGT SNOW  28  23  80 MISG      29.94S FOG
CAMBRIDGE*     CLOUDY    32  21  64 N9        29.90F WCI  24
EASTON*        PTSUNNY   30  19  64 N9        29.95S WCI  22

$$

MDZ017>025-152100-
SOUTHERN MARYLAND

CITY           SKY/WX    TMP DP  RH WIND       PRES   REMARKS
PATUXENT RIVER HAIL      32  24  72 N8        29.89F WCI  25
ST INIGOES     CLOUDY    34  23  64 VRB5      29.89S
LEONARDTOWN*   CLOUDY    32  23  69 N3        29.91F

$$

MDZ003>005-152100-
NORTH CENTRAL MARYLAND

CITY           SKY/WX    TMP DP  RH WIND       PRES   REMARKS
FREDERICK*     LGT SNOW  27  19  74 CALM      29.97S
HAGERSTOWN APT CLOUDY    27  21  78 SW5       29.90F
WESTMINSTER*   LGT SNOW  25  21  86 SW3       29.89F

$$

MDZ501>502-152100-
WESTERN MARYLAND

CITY           SKY/WX    TMP DP  RH WIND       PRES   REMARKS
OAKLAND*       CLOUDY    19  18  93 W12G25    29.74S WCI   7
CUMBERLAND*    CLOUDY    28  19  69 CALM      29.94S

$$

VAZ025>031-152100-
SHENANDOAH VALLEY

CITY           SKY/WX    TMP DP  RH WIND       PRES   REMARKS
WINCHESTER*    CLOUDY    28  19  69 SW3       29.90S
FRONT ROYAL*   CLOUDY    30  19  64 MISG      29.89S
LURAY*         CLOUDY    32  27  80 SW5       29.89S
NEW MARKET*    CLOUDY    31  20  64 CALM      29.88S
STAUNTON*      CLOUDY    31  24  73 S3        29.89S
WAYNESBORO*    CLOUDY    32  24  72 SW8       29.86F WCI  25

$$

WVZ021-048>050-054>055-152100-
EASTERN WEST VIRGINIA PANHANDLE

CITY           SKY/WX    TMP DP  RH WIND       PRES   REMARKS
MARTINSBURG    CLOUDY    28  19  69 CALM      29.91S
PETERSBURG*    CLOUDY    29  21  71 CALM      29.89S

$$

VAZ036>039-050-152100-
CENTRAL FOOTHILLS

CITY           SKY/WX    TMP DP  RH WIND       PRES   REMARKS
CHARLOTTESVILL CLOUDY    31  22  69 S3        29.91F
CULPEPER*      CLOUDY    30  23  75 CALM      29.94S
ORANGE*        CLOUDY    30  23  74 CALM      29.93S
GORDONSVILLE*  CLOUDY    30  23  74 CALM      29.92S
WARRENTON*     CLOUDY    30  23  74 CALM      29.93S

$$

VAZ055>057-152100-
NORTH AND CENTRAL PIEDMONT

CITY           SKY/WX    TMP DP  RH WIND       PRES   REMARKS
FREDERICKSBRG* CLOUDY    31  23  73 N6        29.94S
STAFFORD*      LGT SNOW  29  26  86 NW7       29.98S

$$

NCZ024-NYZ072-PAZ021-071-VAZ022-071-152100-
OTHER REGIONAL OBSERVATIONS

CITY           SKY/WX    TMP DP  RH WIND       PRES   REMARKS
NEW YORK CITY  LGT SNOW  25  17  72 W5        29.95F VSB 1
PHILADELPHIA   SNOW      25  21  85 NW6       29.94F VSB 1/2
PITTSBURGH     CLOUDY    28  12  51 W13G20    29.87S WCI  17
ROANOKE        PTSUNNY   37  24  59 W7        29.92F
RICHMOND       CLOUDY    37  19  48 NW8       29.91F
RALEIGH        CLOUDY    42  28  57 W7        29.94S

$$

ANZ530>537-152100-
MARINE OBSERVATIONS

STATION/POSITION TIME  TEMP    WIND        PRES
                       AIR SEA DIR/SP/G
                 (UTC) (F)     (DEG/KT/KT) (MB)
THOMAS PT LIGHT  2000   28 44  350/ 12/ 14   N/A
BALT KEY BRIDGE  1948   25      60/  4/  5 1013.9F
COVE POINT       1948   31      10/ 12/ 15 1013.0F
LEWISETTA        1948   34 40  340/  8/ 11 1012.6R
SOLOMONS ISLAND  1948   32 45  350/  8/ 10 1012.1F
PINEY POINT      1936           10/  7/  9   N/A

$$





USA.gov is the U.S. government's official web portal to all federal, state and local government web resources and services.